Location: Beemte
(52.2555°N, 5.9895°E)
Time: 10:47:57
(UTC+00:00)

NOSS 3-3 (C) - Pass Details

Date: 15 May 2026
Orbit: 697 x 1516 km, 63.4° (Epoch: 11 January)

Event Time Altitude Azimuth Distance (km) Brightness Sun altitude
Rises 20:29:35 0° 219° (SW) 3,183 6.6 -8.4°
Reaches altitude 10° 20:31:47 10° 218° (SW) 2,325 5.9 -8.6°
Maximum altitude 20:37:06 79° 132° (SE) 892 3.7 -9.2°
Drops below altitude 10° 20:43:33 10° 47° (NE) 2,809 6.5 -9.8°
Sets 20:46:27 0° 47° (NE) 3,897 7.2 -10.1°
